EW5056 Weather Reports


time (UTC)temp
C
wind
direction
speed
KPH
gust
KPH
rain 1hr
cm
rain 24hr
cm
rain mn
cm
humidity
%
barometer
mb
20260505110516 12 0 9.7 22.5 0.00 0.00 0.00 89 1011.6
20260505101516 12 0 6.4 16.1 0.00 0.00 0.00 90 1011.5
20260505100538 11 203 6.4 16.1 0.00 0.00 0.00 90 1011.6
20260505095517 11 225 6.4 16.1 0.00 0.00 0.00 90 1011.4
20260505094516 11 180 8.0 16.1 0.00 0.00 0.00 91 1011.4
20260505093518 11 203 6.4 22.5 0.00 0.00 0.00 91 1011.4
20260505092517 11 180 8.0 22.5 0.00 0.00 0.00 91 1011.3
20260505091518 11 203 6.4 19.3 0.00 0.00 0.00 91 1011.4
20260505090517 11 180 4.8 9.7 0.00 0.00 0.00 91 1011.4
20260505085516 11 203 4.8 9.7 0.00 0.00 0.00 91 1011.3
20260505084516 11 203 6.4 12.9 0.00 0.00 0.00 91 1011.3
20260505083516 11 180 4.8 16.1 0.00 0.00 0.00 91 1011.4
20260505082537 11 225 4.8 14.5 0.00 0.00 0.00 91 1011.5
20260505081516 11 203 4.8 14.5 0.00 0.00 0.00 91 1011.6
20260505080516 11 225 6.4 12.9 0.00 0.00 0.00 91 1011.6
20260505075516 11 180 6.4 14.5 0.00 0.00 0.00 90 1011.7
20260505074537 12 203 8.0 22.5 0.00 0.00 0.00 90 1011.6
20260505073537 12 203 8.0 20.9 0.00 0.00 0.00 90 1011.6
20260505072516 12 180 8.0 19.3 0.00 0.00 0.00 89 1011.6
20260505071537 12 203 8.0 17.7 0.00 0.00 0.00 90 1011.5
20260505070537 11 203 8.0 22.5 0.00 0.00 0.00 91 1011.6
20260505065536 11 203 6.4 17.7 0.00 0.00 0.00 91 1011.7
20260505064516 11 203 6.4 16.1 0.00 0.00 0.00 91 1011.6
20260505063516 11 203 4.8 14.5 0.00 0.00 0.00 91 1011.7
20260505062516 11 248 4.8 11.3 0.00 0.00 0.00 91 1011.7
20260505061516 11 203 6.4 14.5 0.00 0.00 0.00 91 1011.7
20260505060516 11 203 4.8 17.7 0.00 0.00 0.00 90 1011.7
20260505055516 11 203 4.8 16.1 0.00 0.00 0.00 90 1011.6
20260505054516 11 225 4.8 11.3 0.00 0.00 0.00 90 1011.6
20260505053516 11 225 4.8 12.9 0.00 0.00 0.00 89 1011.7
20260505052536 11 203 6.4 19.3 0.00 0.00 0.00 89 1011.7
20260505051516 11 180 4.8 16.1 0.00 0.00 0.00 89 1011.7
20260505050516 11 203 6.4 16.1 0.00 0.00 0.00 88 1011.6
20260505041516 12 203 6.4 17.7 0.00 0.00 0.00 86 1011.9
20260505040538 12 180 6.4 14.5 0.00 0.00 0.00 85 1012.0
20260505035516 12 203 6.4 16.1 0.00 0.00 0.00 85 1012.1
20260505034518 12 203 4.8 12.9 0.00 0.00 0.00 84 1012.2
20260505033517 12 225 8.0 17.7 0.00 0.00 0.00 84 1012.3
20260505032518 12 180 6.4 20.9 0.00 0.00 0.00 83 1012.0
20260505031516 12 203 8.0 22.5 0.00 0.00 0.00 82 1012.2
20260505030517 12 203 6.4 16.1 0.00 0.00 0.00 82 1012.2
20260505025516 12 203 8.0 24.1 0.00 0.00 0.00 81 1012.2
20260505024517 12 203 8.0 20.9 0.00 0.00 0.00 81 1012.2
20260505023516 12 203 9.7 25.7 0.00 0.00 0.00 80 1012.2
20260505022517 12 203 9.7 22.5 0.00 0.00 0.00 80 1012.3
20260505021516 12 225 9.7 27.4 0.00 0.00 0.00 80 1012.2
20260505020518 12 248 9.7 27.4 0.00 0.00 0.00 79 1012.0
20260505015517 12 203 9.7 19.3 0.00 0.00 0.00 79 1011.9
20260505014516 12 203 9.7 29.0 0.00 0.00 0.00 78 1011.8
20260505013516 12 203 9.7 20.9 0.00 0.00 0.00 78 1011.7
20260505012517 12 203 9.7 25.7 0.00 0.00 0.00 77 1011.5
20260505011517 12 203 9.7 24.1 0.00 0.00 0.00 76 1011.4
20260505010516 12 203 11.3 30.6 0.00 0.00 0.00 75 1011.2
20260505005516 12 203 11.3 25.7 0.00 0.00 0.00 74 1011.0
20260505004516 12 225 8.0 30.6 0.00 0.00 0.00 73 1010.9
20260505003516 12 203 11.3 22.5 0.00 0.00 0.00 72 1010.8
20260505002536 13 203 11.3 25.7 0.00 0.00 0.00 70 1010.6
20260505001536 13 203 9.7 27.4 0.00 0.00 0.00 68 1010.5
20260505000516 13 203 8.0 17.7 0.00 0.00 0.00 67 1010.5
20260504235516 13 203 14.5 32.2 0.00 0.00 0.00 65 1010.3
20260504234516 13 203 9.7 24.1 0.00 0.00 0.00 67 1010.1
20260504233516 13 203 9.7 29.0 0.00 0.00 0.00 67 1010.1
20260504232516 13 203 12.9 30.6 0.00 0.00 0.00 67 1010.0
20260504231516 13 0 9.7 24.1 0.00 0.00 0.00 67 1009.9
20260504230516 13 0 11.3 32.2 0.00 0.00 0.00 67 1009.8
20260504225518 13 0 12.9 37.0 0.00 0.00 0.00 66 1009.7
20260504224516 14 0 11.3 29.0 0.00 0.00 0.00 65 1009.6
20260504223516 14 0 11.3 20.9 0.00 0.00 0.00 64 1009.7
20260504222516 15 0 11.3 30.6 0.00 0.00 0.00 63 1009.6
20260504221516 15 0 11.3 29.0 0.00 0.00 0.00 62 1009.6
20260504220516 15 180 14.5 38.6 0.00 0.00 0.00 61 1009.6
20260504215516 15 203 11.3 20.9 0.00 0.00 0.00 62 1009.8
20260504214516 15 203 11.3 30.6 0.00 0.00 0.00 60 1009.8
20260504213516 15 203 12.9 32.2 0.00 0.00 0.00 61 1009.8
20260504212516 16 203 11.3 29.0 0.00 0.00 0.00 61 1009.7
20260504211536 16 203 12.9 29.0 0.00 0.00 0.00 59 1009.8
20260504210516 16 203 12.9 33.8 0.00 0.00 0.00 57 1009.8
20260504205516 17 203 8.0 25.7 0.00 0.00 0.00 54 1009.6
20260504204536 18 203 11.3 25.7 0.00 0.00 0.00 52 1009.4
20260504203516 18 203 11.3 29.0 0.00 0.00 0.00 51 1009.4
20260504202516 18 203 12.9 25.7 0.00 0.00 0.00 50 1009.4
20260504201516 18 203 9.7 20.9 0.00 0.00 0.00 49 1009.4
20260504200536 18 225 12.9 33.8 0.00 0.00 0.00 46 1009.4
20260504195536 18 203 14.5 32.2 0.00 0.00 0.00 42 1009.3
20260504194517 18 203 19.3 41.8 0.00 0.00 0.00 40 1009.2
20260504193516 19 203 12.9 33.8 0.00 0.00 0.00 39 1009.2
20260504192516 19 225 16.1 35.4 0.00 0.00 0.00 39 1009.4
20260504191516 19 225 17.7 49.9 0.00 0.00 0.00 39 1009.5
20260504190516 19 203 17.7 48.3 0.00 0.00 0.00 42 1009.8
20260504185516 19 225 19.3 38.6 0.00 0.00 0.00 43 1009.6
20260504184515 18 203 17.7 51.5 0.00 0.00 0.00 40 1009.6
20260504183516 19 225 16.1 35.4 0.00 0.00 0.00 41 1009.5
20260504182515 19 225 14.5 41.8 0.00 0.00 0.00 44 1009.4
20260504181536 20 203 14.5 35.4 0.00 0.00 0.00 42 1009.2
20260504180515 20 203 12.9 38.6 0.00 0.00 0.00 43 1009.2
20260504175536 19 225 14.5 41.8 0.00 0.00 0.00 41 1009.3
20260504174516 20 180 16.1 37.0 0.00 0.00 0.00 40 1009.6
20260504173515 20 203 12.9 29.0 0.00 0.00 0.00 38 1009.6
20260504172515 19 203 17.7 51.5 0.00 0.00 0.00 40 1009.6
20260504171515 20 203 14.5 35.4 0.00 0.00 0.00 42 1009.6
20260504170516 20 225 9.7 17.7 0.00 0.03 0.00 46 1009.7
20260504150517 18 225 8.0 24.1 0.00 0.15 0.00 59 1010.6
20260504140517 18 0 8.0 24.1 0.00 0.15 0.00 52 1010.8
20260504130517 16 225 14.5 30.6 0.00 0.15 0.00 55 1011.1